Temperature
13 13 14 15 12 10 12 14 15 16 16 18 18 18 16 16 17 16 15 16 16 16 16 16 16 16 16 17 17 17 17 17 17 17 17 17 17 17 17 17 17 17 16 16 16 16 16 16 16
13 13 14 14 11 11 13 13 14 15 17 18 18 18 16 15 15 15 15 15 16 16 16 16 16 16 16 16 17 17 17 17 17 17 17 17 17 17 17 16 16 16 16 16 16 16 16 16 16
13 13 14 10 11 12 13 14 14 16 17 18 18 17 16 15 15 15 15 15 16 16 16 16 16 16 16 16 16 16 16 17 17 16 16 16 17 16 16 16 16 16 16 16 16 16 16 16 16
13 13 13 10 12 13 14 14 15 16 17 17 17 16 15 15 15 15 15 15 16 16 16 16 16 16 16 16 16 16 16 16 16 16 16 16 16 16 16 16 16 16 16 16 16 16 16 16 16
13 13 10 11 12 13 13 15 15 15 16 16 16 14 14 14 15 15 15 15 16 16 16 16 16 16 16 16 16 16 16 16 16 16 16 16 16 16 16 16 16 16 16 16 16 16 16 16 15
12 10 9 10 12 13 13 15 15 14 15 16 15 14 13 14 14 15 15 15 15 15 15 15 15 15 15 15 16 16 16 16 16 16 16 16 16 16 16 16 16 16 16 16 16 16 16 15 15
11 9 10 11 12 13 13 15 14 13 14 15 15 13 13 14 14 14 15 15 15 15 15 15 15 15 15 15 15 15 15 15 15 15 15 15 16 16 16 16 16 16 16 16 16 16 15 15 15
11 9 11 11 12 12 13 14 14 14 14 15 15 13 13 13 14 14 14 14 14 14 14 14 14 14 15 15 15 15 15 15 15 15 15 15 15 15 15 15 15 15 15 15 15 15 15 15 15
11 8 9 11 11 12 13 13 13 14 14 14 14 14 13 13 13 14 14 14 14 14 14 14 14 14 14 14 14 14 15 15 15 15 15 15 15 15 15 15 15 15 15 15 15 15 15 15 15
10 8 10 11 11 11 12 12 13 13 12 12 13 13 13 13 13 13 13 13 13 13 13 13 13 14 14 14 14 14 14 14 14 15 15 15 15 15 15 15 15 15 15 15 15 15 15 15 15
10 9 10 11 11 11 11 12 12 12 11 12 12 12 12 13 13 12 12 12 12 12 12 13 13 13 13 13 13 14 14 14 14 14 14 15 15 15 15 15 15 15 15 15 15 15 15 15 15
9 10 10 11 11 11 11 11 11 11 12 12 12 12 12 12 12 12 12 12 12 12 12 12 12 12 12 13 13 13 13 13 14 14 14 14 14 14 14 14 15 15 15 15 15 15 15 15 15
9 9 10 11 11 11 11 10 10 11 12 12 12 12 12 12 12 11 11 11 11 11 11 11 12 12 12 12 12 12 12 13 13 13 13 13 13 14 14 14 14 14 14 14 15 15 15 14 14
9 9 10 10 10 10 10 10 10 11 12 12 12 12 11 11 11 11 11 11 11 11 11 11 11 11 11 11 11 12 12 12 12 13 13 13 13 13 13 14 14 14 14 14 14 14 14 14 14
10 9 9 10 10 10 10 9 9 11 11 11 11 11 11 11 11 10 10 10 10 10 10 10 10 10 11 11 11 11 11 12 12 12 12 12 12 13 13 13 13 13 14 14 14 14 14 14 14
9 8 8 9 10 10 9 8 9 11 11 10 10 10 10 10 10 10 10 10 10 10 10 10 10 10 10 10 10 10 11 11 11 11 12 12 12 12 12 12 13 13 13 13 13 14 14 14 14
7 7 8 9 9 9 9 8 9 10 10 9 10 10 9 9 9 9 9 9 9 9 9 9 9 9 10 10 10 10 10 10 11 11 11 11 11 11 12 12 12 13 13 13 13 13 13 13 13
7 7 8 8 9 9 8 7 8 9 9 9 9 9 9 9 9 9 9 9 9 9 9 9 9 9 9 9 9 9 10 10 10 10 10 10 11 11 11 11 12 12 12 12 12 13 13 13 13
8 8 7 8 9 8 7 7 8 8 8 8 8 8 8 8 8 8 8 8 8 8 8 8 8 8 9 9 9 9 9 9 9 10 10 10 10 10 10 11 11 11 12 12 12 12 12 12 12
8 7 7 8 8 8 7 7 7 7 7 8 8 8 8 8 8 8 8 7 7 8 8 8 8 8 8 8 8 8 8 8 9 9 9 9 10 10 10 10 11 11 11 11 11 11 11 12 12
7 7 7 7 7 7 7 7 7 7 8 8 7 7 7 7 7 7 7 7 7 7 7 7 7 7 7 7 7 7 8 8 8 8 9 9 9 9 9 10 10 10 10 11 11 11 11 11 11
7 8 8 7 6 5 6 6 6 7 7 7 6 7 7 6 6 6 6 6 6 6 6 6 6 6 7 7 7 7 7 7 7 8 8 8 8 9 9 9 9 10 10 10 10 10 10 10 10
7 8 7 7 6 5 6 5 6 6 6 6 6 6 6 6 6 6 5 5 5 5 6 6 6 6 6 6 6 7 7 6 6 7 7 8 8 8 8 8 9 9 9 9 9 10 10 10 10
7 7 6 6 5 6 6 5 6 6 6 6 6 6 6 6 5 5 5 5 5 5 5 6 6 6 6 6 6 6 6 6 6 6 7 7 7 7 8 8 8 8 8 9 9 9 9 9 9
6 5 5 5 5 6 6 5 6 6 6 6 6 6 6 5 5 5 5 4 5 5 5 5 5 5 5 5 5 5 6 6 6 6 6 6 6 7 7 7 7 7 8 8 8 8 8 8 8
6 5 5 6 5 5 6 6 6 6 6 7 6 6 5 5 5 4 4 4 4 4 4 5 5 5 5 5 5 5 5 5 5 5 5 5 6 6 6 7 7 7 7 7 7 7 7 7 7
6 5 5 4 5 5 5 5 6 6 6 5 6 5 5 5 4 4 4 4 4 4 4 4 4 4 4 5 4 5 5 5 5 5 5 5 5 5 5 6 6 6 6 6 6 7 7 7 7
6 6 5 5 5 6 6 5 6 6 5 5 4 5 5 5 4 4 4 4 4 3 3 4 4 4 4 4 4 4 4 4 4 4 4 4 5 5 5 5 5 5 6 6 6 6 6 6 6
6 6 5 4 4 5 5 6 6 6 6 5 4 5 5 5 4 4 4 4 3 3 3 3 4 4 4 4 4 4 4 4 4 4 4 4 4 4 5 5 5 5 5 5 5 5 5 6 6
6 6 5 5 5 4 4 5 6 5 5 5 5 5 5 5 4 4 4 3 3 3 3 3 3 3 3 3 3 3 3 4 4 4 4 4 4 4 4 4 4 4 5 5 5 5 5 5 5
Wind_Speed
7 6 2 4 5 4 3 5 2 0 1 2 1 5 7 5 4 6 4 2 3 3 3 5 6 6 7 7 7 7 7 8 8 9 8 9 9 9 10 10 10 10 10 10 10 11 10 11 11
4 2 4 5 5 3 4 4 4 4 3 1 3 5 7 6 4 6 0 2 4 4 4 5 5 5 6 6 6 6 6 7 7 8 8 8 9 9 9 10 10 10 10 10 10 10 11 11 11
3 1 4 4 4 6 6 4 7 3 1 1 3 5 6 5 4 3 1 3 5 5 5 5 5 4 4 4 5 5 5 6 6 7 8 8 9 9 9 10 10 10 10 10 10 11 11 10 10
3 4 4 3 4 4 5 4 3 2 3 3 4 5 4 3 3 3 2 5 6 4 5 5 4 3 2 2 3 4 5 6 6 6 7 8 9 10 10 10 10 10 10 10 11 11 11 10 10
4 4 3 2 4 2 2 3 1 2 2 3 4 5 4 4 3 5 5 6 6 4 5 5 4 3 2 1 1 3 4 5 6 7 7 8 9 9 10 10 10 10 11 11 11 12 12 11 11
3 4 4 5 4 2 2 3 1 2 2 3 4 5 3 3 4 5 6 5 5 4 5 5 4 3 2 1 1 2 3 4 6 7 7 7 8 9 9 11 11 11 11 12 12 12 12 12 11
4 4 5 5 4 2 2 1 2 2 3 2 3 4 2 2 2 4 5 5 5 5 5 4 4 4 4 3 3 4 4 4 5 7 7 7 8 8 9 10 11 12 12 13 13 13 13 13 12
4 4 3 2 4 2 1 2 2 3 1 1 3 4 3 2 1 5 6 6 6 5 4 5 5 4 5 5 5 5 5 5 6 6 7 8 8 9 9 10 11 12 13 14 14 14 14 13 13
3 3 3 2 4 3 1 3 3 1 3 3 2 2 3 1 3 6 6 6 5 6 4 4 5 5 5 5 5 6 6 6 6 6 7 8 7 8 9 10 11 12 13 14 15 15 14 14 13
3 3 4 1 2 3 1 2 2 3 3 2 2 2 2 3 4 5 4 4 4 5 5 3 4 5 5 5 6 6 6 6 6 6 6 7 7 8 9 10 12 12 13 14 15 16 15 12 10
3 4 2 0 1 2 2 3 2 2 0 2 3 1 1 3 3 2 2 2 3 3 4 4 4 4 4 4 5 4 5 5 6 6 6 6 6 7 7 6 8 10 11 10 11 12 11 10 9
3 1 1 0 1 1 1 1 2 1 4 4 3 2 0 1 1 1 2 3 3 4 5 5 4 4 4 5 4 4 3 3 4 6 7 5 3 3 4 5 6 7 8 7 7 7 9 10 10
2 1 0 1 1 0 0 1 1 3 4 2 1 0 1 2 2 2 2 3 3 4 5 5 5 4 4 4 4 4 3 4 5 6 6 6 4 4 4 4 5 7 7 7 6 6 7 7 8
3 1 1 2 1 1 1 3 1 5 3 1 1 1 2 2 2 2 3 3 4 5 5 5 5 5 4 4 3 3 4 5 5 5 7 7 6 4 5 5 5 6 8 8 7 7 6 6 6
2 1 2 2 2 1 1 4 4 6 2 1 1 1 1 1 1 2 3 3 4 5 5 5 5 5 5 5 4 3 4 4 4 5 7 7 7 5 5 5 5 6 8 8 7 6 5 5 6
2 2 1 3 3 2 3 5 6 4 2 2 2 1 1 2 2 2 3 4 5 5 5 5 6 6 5 5 5 4 4 4 4 5 6 7 8 7 5 5 5 5 6 6 6 6 6 6 6
3 2 2 3 2 2 3 6 6 3 1 2 2 2 1 3 4 4 4 4 5 5 5 5 6 5 5 5 5 4 4 4 3 4 4 5 6 6 4 5 5 5 4 5 6 6 6 5 5
3 3 2 3 2 1 4 7 6 3 2 3 2 1 1 2 3 4 5 5 5 5 5 5 6 5 5 4 4 3 3 3 3 3 4 4 4 5 4 4 5 5 5 5 5 6 6 5 5
4 3 2 3 2 1 5 8 8 4 2 3 2 2 2 2 3 4 5 6 6 6 6 6 6 6 4 3 3 3 3 3 3 3 4 4 4 4 4 4 4 5 5 6 6 6 6 5 4
3 2 1 2 1 2 4 7 5 4 2 3 3 2 1 2 4 6 6 7 6 6 7 6 6 6 5 4 3 3 3 2 3 3 3 4 4 3 4 4 4 5 5 5 5 5 4 4 4
0 3 3 2 3 2 2 5 3 2 0 1 1 1 1 2 3 5 6 6 6 7 7 7 7 7 6 5 3 3 2 2 2 3 2 3 4 3 3 4 4 4 5 5 5 6 7 5 4
1 2 2 1 2 3 0 3 6 3 2 0 0 1 1 2 2 4 5 6 7 7 7 7 7 6 6 5 3 3 2 3 4 3 3 3 3 3 2 3 3 4 4 5 6 6 6 6 5
2 1 1 1 1 2 1 3 7 2 3 4 3 2 2 2 2 3 4 5 6 7 7 6 6 7 6 5 4 3 3 3 3 3 2 3 3 2 2 2 3 4 4 4 5 4 5 4 5
0 3 3 3 2 2 4 4 6 3 5 4 4 3 2 2 2 3 4 5 6 7 7 6 7 7 6 5 4 3 4 4 3 3 2 2 2 2 2 2 2 3 3 4 4 4 5 5 4
4 4 3 3 2 5 2 4 7 5 4 5 5 4 3 2 2 3 5 6 7 8 8 7 7 7 6 5 4 4 4 3 4 3 2 2 2 2 3 3 3 3 3 4 4 3 3 4 5
1 4 4 3 3 4 2 5 5 3 2 2 3 3 2 2 2 3 4 5 6 7 8 7 7 7 6 5 5 4 4 3 3 3 2 2 3 3 3 4 3 3 3 3 3 3 3 3 4
2 1 3 3 1 3 5 5 5 1 1 1 2 2 2 3 3 3 4 4 5 6 7 7 7 7 6 5 5 5 4 4 3 3 2 2 3 3 3 3 3 3 3 3 3 3 3 3 4
2 3 3 2 1 3 5 5 4 4 4 4 3 3 3 3 3 3 3 4 4 5 6 6 5 6 6 5 4 4 4 4 3 2 2 2 3 3 3 3 3 3 3 3 2 3 3 3 3
2 2 2 2 2 2 4 6 4 5 5 5 5 4 4 4 4 3 3 3 4 5 5 6 6 6 6 5 5 4 4 3 3 2 2 2 3 3 3 2 2 2 2 2 2 2 3 2 3
4 4 5 3 3 3 3 7 4 4 4 4 4 4 4 4 3 3 2 3 4 4 5 6 6 6 6 5 5 4 4 4 4 3 3 3 2 2 2 2 1 1 1 2 2 2 3 3 3
Wind_Direction
334 341 71 62 66 73 209 242 238 220 186 229 156 107 107 87 103 143 214 268 125 120 116 113 118 119 123 126 131 136 136 150 158 157 157 156 154 153 154 153 154 153 150 148 145 142 134 129 126
346 1 62 68 107 147 241 245 212 227 216 172 73 84 81 77 85 107 86 43 103 102 94 95 110 118 123 131 138 147 151 154 164 169 169 169 169 166 165 165 165 163 157 154 151 148 142 138 135
342 54 89 94 144 178 196 215 200 217 309 107 71 60 84 98 101 107 135 98 87 72 77 81 92 112 121 136 147 157 164 168 170 175 180 180 180 180 177 176 174 170 165 160 155 153 151 149 146
52 55 66 103 194 214 192 200 183 155 42 48 94 61 55 24 99 128 91 85 83 63 63 69 80 85 104 130 155 170 178 183 185 185 189 191 190 191 190 185 179 175 172 168 164 163 163 160 159
63 87 100 161 216 238 229 247 186 108 83 35 81 85 65 358 55 74 70 72 77 58 53 59 59 58 67 121 170 190 198 202 201 200 200 201 200 198 197 191 184 179 179 178 174 173 172 172 169
64 84 128 190 205 236 273 290 86 83 86 56 77 90 98 328 47 50 58 63 69 61 44 48 39 24 12 324 256 233 232 226 218 213 211 209 209 207 200 194 190 187 185 184 183 182 183 183 180
114 119 165 178 177 205 267 338 105 115 84 57 102 96 129 322 27 52 57 56 48 42 34 24 15 1 345 321 296 270 250 245 238 227 218 216 213 213 207 198 196 194 192 191 191 190 189 189 190
129 120 156 182 167 183 312 43 76 103 126 0 84 123 173 234 1 44 43 38 31 26 18 1 353 349 338 318 300 285 266 253 248 244 233 224 220 216 211 205 202 199 198 198 196 192 193 195 195
102 96 179 199 167 170 359 47 2 20 82 37 45 130 178 200 39 39 31 19 12 7 355 352 343 336 327 311 295 292 279 265 256 249 239 229 224 219 214 212 207 203 203 202 201 198 198 198 200
99 158 201 227 157 145 66 56 359 37 38 38 42 37 65 50 44 39 24 6 357 342 337 342 335 331 325 314 306 295 282 274 264 257 246 235 226 220 218 216 211 208 206 207 207 203 200 197 203
127 172 184 29 61 87 44 9 7 102 46 199 178 210 31 43 36 31 358 332 315 313 324 329 328 327 323 317 307 295 285 279 267 256 247 240 231 226 220 214 214 210 207 208 210 205 202 199 201
129 162 146 119 32 43 6 347 360 169 208 209 190 189 334 354 330 298 298 302 305 313 307 309 313 317 315 309 304 288 283 278 271 257 245 234 232 226 218 211 210 206 205 203 203 202 202 202 204
148 201 177 208 44 296 337 279 262 255 242 247 241 140 263 291 297 292 286 298 307 308 306 302 303 303 306 305 297 296 279 273 261 256 247 233 226 227 224 217 211 210 205 200 201 205 205 205 207
176 205 261 264 258 266 238 286 263 259 248 281 263 268 291 288 291 323 332 316 310 304 303 302 299 296 299 288 284 283 285 280 266 255 250 240 231 230 225 221 216 214 209 205 202 204 208 212 211
110 62 344 273 213 214 117 306 240 246 245 263 260 257 307 315 343 329 308 306 302 300 302 302 299 302 296 286 279 289 291 289 275 266 255 248 237 229 229 224 219 219 213 207 204 205 208 216 217
66 80 315 273 188 175 143 264 266 262 193 245 271 287 332 330 328 314 315 315 314 312 310 308 315 315 302 289 283 286 288 281 277 276 267 256 245 232 223 227 224 222 215 208 206 205 207 215 220
54 143 222 273 210 166 182 245 270 293 181 231 270 288 332 339 339 335 334 329 320 315 313 314 313 309 305 295 289 284 281 271 280 286 281 270 260 244 228 230 232 221 215 211 213 208 205 212 221
179 183 215 235 232 189 227 249 270 286 214 239 260 284 315 327 324 336 344 341 334 329 326 323 320 314 310 306 303 294 287 281 286 291 289 281 275 260 244 239 239 224 215 215 212 210 209 211 215
164 164 212 248 234 247 241 255 267 260 235 240 253 270 295 311 326 355 359 355 351 348 347 341 335 327 327 324 318 305 293 291 288 282 291 290 287 273 250 248 241 229 220 218 214 208 208 213 202
147 157 226 293 298 255 262 272 269 249 216 206 210 225 263 347 2 2 359 358 356 349 345 340 335 329 325 313 299 282 278 272 266 269 292 304 296 284 260 247 241 234 228 221 220 211 209 213 195
136 186 196 252 338 352 340 307 287 282 146 93 108 135 92 23 353 348 349 348 348 345 337 333 328 325 321 317 311 313 305 306 297 300 299 299 300 290 276 264 247 241 229 221 218 215 205 212 211
248 209 186 211 13 298 46 291 276 267 281 244 14 58 353 342 344 336 335 337 337 330 325 323 323 323 320 321 321 317 311 292 283 285 283 291 302 306 302 282 264 251 242 228 221 221 218 203 213
218 246 229 231 206 297 241 214 280 268 252 254 246 243 272 287 308 318 322 324 327 326 325 324 324 323 323 324 317 306 294 276 279 286 293 303 313 311 307 285 264 257 252 238 224 223 227 216 214
213 36 33 51 76 281 221 188 275 247 232 246 241 234 246 273 308 318 322 327 329 330 331 332 334 332 329 330 324 320 303 296 297 298 294 300 296 290 287 276 256 256 256 247 234 222 223 223 217
62 77 41 1 340 258 215 196 251 249 234 218 224 234 240 271 307 320 327 332 334 334 333 336 339 337 335 330 328 329 320 305 294 290 285 283 280 282 284 277 259 258 252 248 240 227 226 231 221
150 130 150 197 240 284 290 231 249 255 244 213 204 207 213 276 298 305 314 324 328 328 331 335 338 336 337 337 331 327 328 319 307 299 293 288 285 283 283 272 262 261 261 256 242 224 227 237 237
140 161 162 142 249 278 272 276 290 230 277 243 211 194 232 273 285 294 313 324 326 328 330 332 335 336 338 337 335 338 336 325 316 309 300 300 294 288 284 275 274 268 258 252 249 232 228 230 235
150 148 111 132 232 278 286 269 249 241 249 255 245 235 253 270 281 293 310 322 325 326 331 335 333 333 331 334 335 339 327 319 318 327 318 300 296 291 288 288 281 276 266 252 245 250 238 225 242
166 171 157 162 184 206 282 274 231 219 223 230 236 231 234 249 265 277 297 315 323 331 336 337 339 342 342 342 341 341 333 332 340 339 325 311 314 319 308 295 288 286 287 281 256 257 247 232 243
189 194 164 174 235 207 235 269 274 241 232 222 231 239 239 238 250 259 286 316 330 332 335 335 342 344 339 339 347 355 355 356 358 345 334 333 333 323 314 316 322 315 294 271 260 275 271 250 244
Height
1509 1511 1513 1516 1521 1531 1530 1523 1515 1513 1512 1510 1510 1510 1512 1516 1519 1528 1527 1525 1525 1525 1525 1526 1527 1528 1528 1529 1530 1531 1532 1533 1533 1534 1535 1536 1536 1537 1538 1538 1539 1539 1540 1540 1541 1541 1542 1542 1543
1510 1511 1515 1516 1525 1535 1528 1519 1515 1511 1510 1509 1510 1511 1512 1517 1520 1522 1524 1524 1525 1525 1525 1526 1527 1528 1528 1529 1530 1530 1531 1532 1533 1534 1535 1535 1536 1537 1537 1538 1539 1539 1540 1540 1541 1541 1542 1543 1543
1510 1511 1514 1517 1523 1527 1521 1514 1511 1509 1509 1509 1511 1512 1515 1519 1521 1522 1524 1524 1525 1525 1525 1526 1527 1527 1528 1529 1529 1530 1530 1531 1532 1533 1534 1535 1535 1536 1537 1538 1538 1539 1540 1540 1541 1542 1542 1543 1544
1510 1512 1514 1520 1520 1517 1513 1510 1509 1509 1509 1509 1510 1514 1517 1521 1522 1523 1523 1524 1524 1525 1525 1526 1526 1527 1527 1528 1528 1529 1530 1530 1531 1532 1533 1534 1534 1535 1536 1537 1538 1538 1539 1540 1541 1541 1542 1543 1543
1509 1511 1517 1521 1517 1513 1510 1509 1508 1509 1509 1510 1511 1515 1519 1521 1522 1522 1523 1524 1524 1524 1525 1525 1525 1526 1526 1527 1527 1528 1528 1529 1530 1531 1531 1532 1533 1534 1535 1536 1537 1537 1538 1539 1540 1541 1542 1542 1543
1509 1510 1520 1521 1516 1512 1510 1508 1509 1509 1510 1511 1512 1515 1520 1521 1521 1522 1522 1523 1523 1523 1523 1524 1524 1524 1525 1525 1526 1526 1527 1527 1528 1529 1530 1531 1531 1532 1533 1534 1535 1536 1537 1538 1539 1540 1541 1542 1542
1509 1513 1516 1516 1515 1513 1510 1509 1509 1510 1510 1512 1513 1516 1519 1520 1521 1521 1521 1522 1522 1522 1522 1522 1522 1523 1523 1523 1524 1524 1525 1525 1526 1527 1528 1529 1529 1530 1531 1532 1533 1534 1535 1537 1538 1539 1540 1541 1541
1508 1512 1513 1514 1513 1513 1510 1510 1510 1510 1511 1512 1513 1515 1518 1520 1520 1520 1520 1521 1521 1520 1520 1520 1520 1520 1520 1521 1521 1521 1522 1523 1523 1524 1525 1526 1527 1528 1529 1530 1531 1532 1534 1535 1536 1537 1538 1539 1540
1507 1515 1516 1513 1512 1512 1510 1510 1510 1511 1511 1512 1513 1515 1517 1518 1518 1518 1518 1519 1519 1519 1518 1518 1518 1518 1518 1518 1518 1519 1519 1520 1521 1521 1522 1523 1524 1525 1526 1527 1529 1530 1531 1532 1534 1535 1536 1537 1538
1507 1514 1512 1510 1509 1510 1510 1510 1511 1511 1511 1512 1513 1515 1516 1516 1516 1516 1516 1516 1516 1516 1516 1515 1515 1514 1514 1514 1515 1515 1516 1516 1517 1518 1519 1520 1521 1522 1523 1524 1526 1527 1528 1530 1531 1532 1534 1535 1536
1506 1510 1510 1509 1509 1509 1510 1510 1511 1511 1513 1512 1512 1513 1514 1514 1514 1514 1514 1514 1513 1513 1513 1512 1511 1511 1511 1510 1511 1511 1512 1512 1513 1514 1515 1516 1517 1518 1519 1520 1522 1523 1525 1526 1528 1529 1530 1532 1533
1507 1508 1508 1509 1509 1509 1510 1510 1511 1511 1511 1512 1512 1512 1512 1512 1512 1512 1512 1511 1511 1510 1509 1509 1508 1507 1507 1507 1506 1507 1507 1508 1508 1510 1511 1512 1513 1514 1515 1516 1518 1519 1521 1522 1524 1525 1527 1528 1530
1507 1508 1508 1509 1509 1509 1510 1511 1511 1510 1510 1510 1511 1511 1511 1510 1510 1510 1510 1509 1508 1507 1506 1505 1504 1503 1503 1502 1502 1502 1502 1503 1503 1504 1506 1507 1508 1509 1510 1512 1514 1515 1517 1518 1520 1522 1523 1525 1526
1507 1508 1508 1508 1508 1509 1510 1510 1511 1508 1509 1509 1509 1509 1509 1508 1508 1507 1507 1506 1505 1503 1502 1501 1500 1499 1498 1498 1497 1497 1498 1498 1498 1499 1500 1502 1503 1504 1506 1507 1509 1510 1512 1514 1516 1517 1519 1520 1522
1506 1509 1509 1508 1508 1509 1510 1511 1509 1507 1507 1507 1507 1507 1506 1506 1505 1505 1504 1503 1501 1500 1498 1497 1496 1495 1494 1493 1493 1493 1493 1493 1493 1494 1495 1497 1498 1500 1501 1502 1504 1505 1507 1509 1511 1513 1515 1516 1517
1508 1511 1513 1509 1508 1509 1513 1513 1507 1505 1505 1505 1505 1505 1504 1503 1503 1502 1501 1500 1498 1497 1495 1493 1492 1491 1490 1489 1488 1488 1488 1488 1488 1489 1490 1491 1493 1494 1496 1497 1498 1501 1502 1504 1506 1508 1509 1511 1512
1512 1515 1513 1511 1508 1508 1511 1511 1505 1504 1504 1504 1503 1503 1502 1501 1501 1500 1498 1497 1495 1493 1492 1490 1488 1486 1485 1484 1483 1483 1483 1483 1483 1484 1484 1486 1487 1489 1490 1492 1493 1495 1497 1499 1501 1502 1504 1506 1507
1514 1514 1512 1512 1508 1509 1510 1509 1505 1503 1503 1502 1502 1501 1500 1500 1499 1497 1495 1494 1492 1490 1488 1486 1484 1482 1481 1480 1479 1478 1478 1478 1478 1478 1480 1481 1482 1484 1485 1487 1488 1490 1491 1493 1495 1496 1498 1500 1502
1508 1510 1512 1510 1507 1509 1509 1507 1503 1501 1501 1500 1499 1499 1498 1498 1497 1495 1493 1491 1489 1487 1485 1483 1481 1479 1477 1476 1474 1473 1472 1472 1473 1474 1475 1476 1477 1478 1480 1481 1483 1484 1485 1487 1489 1491 1493 1495 1497
1508 1511 1512 1510 1507 1508 1508 1505 1500 1498 1497 1497 1497 1497 1497 1496 1494 1492 1490 1488 1486 1484 1481 1479 1477 1475 1473 1472 1470 1469 1468 1468 1468 1469 1470 1471 1472 1473 1474 1476 1477 1479 1480 1481 1483 1485 1486 1489 1492
1508 1510 1511 1511 1510 1508 1510 1506 1501 1497 1496 1496 1496 1495 1495 1494 1492 1491 1489 1486 1484 1481 1479 1476 1474 1472 1470 1468 1466 1465 1464 1464 1464 1464 1464 1466 1467 1468 1469 1470 1472 1473 1475 1476 1477 1480 1481 1483 1485
1510 1508 1508 1510 1514 1516 1514 1515 1503 1498 1497 1495 1495 1494 1493 1492 1491 1490 1487 1485 1482 1479 1476 1473 1471 1469 1466 1464 1462 1461 1460 1459 1459 1459 1460 1461 1462 1463 1464 1465 1466 1468 1469 1470 1472 1474 1476 1477 1479
1509 1507 1508 1510 1513 1517 1515 1517 1506 1498 1497 1495 1494 1493 1492 1491 1490 1488 1486 1483 1480 1477 1474 1471 1468 1465 1463 1461 1459 1457 1456 1456 1455 1455 1456 1456 1457 1458 1459 1460 1461 1463 1464 1465 1467 1468 1470 1471 1473
1507 1509 1510 1513 1516 1517 1512 1516 1507 1499 1494 1492 1492 1491 1491 1490 1488 1486 1484 1481 1478 1475 1472 1468 1465 1463 1460 1458 1456 1454 1452 1452 1451 1451 1451 1451 1452 1453 1454 1455 1456 1457 1459 1459 1461 1462 1464 1465 1467
1510 1516 1522 1519 1522 1515 1508 1511 1504 1493 1490 1489 1489 1489 1489 1488 1486 1484 1482 1479 1475 1472 1469 1466 1463 1460 1458 1455 1453 1451 1449 1448 1448 1447 1447 1447 1448 1449 1449 1451 1451 1452 1453 1454 1455 1456 1458 1460 1461
1510 1515 1522 1521 1520 1517 1509 1506 1497 1490 1488 1487 1487 1488 1487 1486 1485 1483 1480 1477 1474 1471 1467 1464 1461 1458 1455 1453 1450 1448 1446 1445 1444 1444 1444 1444 1445 1445 1446 1447 1447 1448 1448 1449 1450 1451 1452 1455 1456
1510 1514 1514 1521 1521 1520 1511 1503 1494 1489 1488 1487 1486 1486 1486 1485 1483 1481 1479 1476 1473 1469 1466 1463 1459 1456 1453 1450 1448 1445 1444 1442 1441 1441 1441 1441 1442 1442 1443 1443 1444 1444 1444 1444 1445 1445 1447 1449 1450
1509 1511 1516 1519 1517 1514 1508 1503 1495 1489 1488 1486 1485 1484 1484 1483 1482 1480 1477 1474 1471 1468 1465 1462 1459 1455 1452 1449 1446 1443 1442 1441 1440 1439 1439 1439 1439 1439 1439 1440 1440 1440 1440 1440 1440 1441 1442 1443 1445
1510 1511 1513 1518 1519 1517 1513 1501 1487 1485 1484 1484 1483 1483 1482 1482 1480 1478 1476 1473 1470 1467 1464 1461 1457 1454 1451 1448 1445 1442 1441 1439 1438 1437 1437 1437 1437 1437 1436 1436 1436 1436 1436 1435 1436 1436 1437 1437 1439
1507 1507 1511 1517 1516 1518 1517 1503 1483 1482 1481 1481 1481 1481 1481 1480 1479 1477 1474 1472 1469 1466 1463 1459 1456 1453 1450 1447 1444 1442 1440 1438 1437 1436 1435 1435 1435 1434 1434 1433 1433 1432 1432 1431 1431 1432 1432 1432 1433